Retour au catalogue

STARLINK-36200

ActifCommunicationsVLEO
NORAD 67101·PAYLOAD·🇺🇸 United States

Lancé Dec 14, 2025 depuis Vandenberg Space Force Base

Loading…

Prochains Passages (prochaines 24 heures)

TLE

FraisSource: CelesTrak SupGP

Époque: Sep 14, 2026, 23:23 UTC

1 67101C 25298AC  26257.97479167  .00026716  00000+0  22384-2 0  2572
2 67101  69.9999 257.3502 0003800 266.8478 202.4236 14.98324285    10

Suivez STARLINK-36200 en temps réel avec AllMySat

Download on the App Store